Regional Weather Roundup
Issued by NWS

Home | Current Version | Previous Version | Graphics & Text | Print | Product List | Glossary On
Versions: 1 2 3 4 5 6 7 8 9 10 11 12 13 14 15 16 17 18 19 20 21 22 23 24 25 26 27 28 29 30 31 32 33 34 35 36 37 38 39 40 41 42 43 44 45 46 47 48 49 50
000
ASUS43 KLOT 220906
RWRIL

ILLINOIS REGIONAL WEATHER ROUNDUP
NATIONAL WEATHER SERVICE CHICAGO/ROMEOVILLE IL
400 AM CDT WED OCT 22 2014

NOTE: "FAIR" INDICATES FEW OR NO CLOUDS BELOW 12,000 FEET WITH NO
SIGNIFICANT WEATHER AND/OR OBSTRUCTIONS TO VISIBILITY.

* THESE STATIONS ARE NOT UNDER NWS QUALITY CONTROL. THEY ALSO MAY NOT
  REPORT WEATHER SUCH AS PRECIPITATION OR FOG.

ILZ001-002-007-009-015-016-024-221000-
NORTHWEST ILLINOIS

CITY           SKY/WX    TMP DP  RH WIND       PRES   REMARKS
MOLINE         CLEAR     32  30  92 E3        30.29R
STERLING*      CLEAR     34  30  86 CALM      30.29S
SAVANNA*       CLEAR     34  33  94 E5        30.30R WCI  30
$$

ILZ003-004-008-010-011-017-018-221000-
NORTH CENTRAL ILLINOIS

CITY           SKY/WX    TMP DP  RH WIND       PRES   REMARKS
ROCKFORD       PTCLDY    34  31  88 CALM      30.31S
FREEPORT*      FOG       28  27  98 CALM      30.32R VSB 1/2
ROCHELLE*      PTCLDY    32  32 100 CALM      30.30S FOG
DE KALB*       CLEAR     32  31  96 N5        30.30R WCI  28
PERU*          CLEAR     35  33  93 CALM      30.30R
$$

ILZ005-006-012>014-019>023-221000-
NORTHEAST ILLINOIS

CITY           SKY/WX    TMP DP  RH WIND       PRES   REMARKS
CHICAGO-OHARE  CLOUDY    46  39  76 N5        30.28R
CHICAGO-MIDWAY MOCLDY    48  40  73 CALM      30.29R
AURORA         CLEAR     33  29  85 CALM      30.30R
LANSING*       CLEAR     35  35  98 CALM      30.29R
JOLIET*        CLEAR     35  35  99 CALM      30.29S
WAUKEGAN       PTCLDY    36  34  92 NW6       30.29R WCI  31
DUPAGE AIRPORT MOCLDY    38  35  89 NW3       30.29R
KANKAKEE*      CLEAR     36  35  98 CALM      30.30R FOG
WHEELING       CLOUDY    46  40  79 N3        30.30R
MORRIS*        CLEAR     36  36  99 N3        30.29R
ROMEOVILLE*    CLEAR     37  36  99 CALM      30.29S
NORTHERLY ISL    N/A     49  38  65 S6          N/A
$$

LMZ740>746-221000-
SOUTHERN LAKE MICHIGAN

STATION/POSITION SKY/WX   TEMP    WIND        PRES    VSBY  WAVE
                          AIR SEA DIR/SP/G                  HT/PER
                          (F)     (DEG/KT/KT) (MB)    (MI)  (FT/S)
SOUTHERN BUOY              47 54  110/ 12/ 14 1026.4R         3/ 5
WAUKEGAN HARBOR            40     310/  6/  8   N/A
HARRISON CRIB              51      90/  4/  7   N/A
BURNHAM HARBOR             49     230/  3/  7   N/A
CALUMET HARBOR             44     250/  3/  5 1024.1S
MICHIGAN CITY              40     110/  8/ 10   N/A
$$

ILZ025>027-034>036-040-047-049-050-058-095>099-221000-
WEST-CENTRAL ILLINOIS

CITY           SKY/WX    TMP DP  RH WIND       PRES   REMARKS
QUINCY         CLEAR     42  38  85 E3        30.25R
GALESBURG*     CLEAR     38  37  94 E3        30.27S
MACOMB*        CLEAR     32  32 100 CALM      30.29R FOG
JACKSONVILLE*  CLEAR     38  36  93 E6        30.26R WCI  33
PITTSFIELD*    CLEAR     42  39  91 CALM      30.27R
$$

ILZ028>032-037-038-041>044-048-051>054-059>061-221000-
CENTRAL ILLINOIS

CITY           SKY/WX    TMP DP  RH WIND       PRES   REMARKS
PONTIAC        CLEAR     34  33  96 NE5       30.29S WCI  29
BLOOMINGTON    CLEAR     37  35  92 NE5       30.28R WCI  33
DECATUR        CLEAR     37  35  92 CALM      30.27R
PEORIA         CLEAR     40  35  83 NE3       30.28S
LACON*         CLEAR     33  32  96 CALM      30.28S
LINCOLN*       CLEAR     37  35  95 CALM      30.27S
SPRINGFIELD    CLEAR     37  35  92 NE3       30.27S
TAYLORVILLE    CLEAR     34  34 100 CALM      30.26S
$$

ILZ033-039-045-046-055>057-062-063-221000-
EAST-CENTRAL ILLINOIS

CITY           SKY/WX    TMP DP  RH WIND       PRES   REMARKS
CHAMPAIGN      CLEAR     40  36  86 NE7       30.26S
DANVILLE*      CLEAR     36  34  94 NE5       30.25R WCI  32
RANTOUL*       CLEAR     42  36  78 NE3       30.28R
MATTOON        CLEAR     37  35  92 N3        30.25R
PARIS*         CLEAR     39  38  95 CALM      30.27R
$$

ILZ079-100>102-221000-
SOUTHWEST ILLINOIS

CITY           SKY/WX    TMP DP  RH WIND       PRES   REMARKS
ALTON          CLEAR     42  39  90 E3        30.25R
BELLEVILLE     CLEAR     42  41  97 N2        30.24R
CAHOKIA*       CLEAR     44  40  85 CALM      30.24R
SPARTA*        CLEAR     41  40  94 CALM      30.24R
$$

ILZ064>066-069>071-074>076-080>082-084>086-088>090-092>094-221000-
SOUTH-CENTRAL ILLINOIS

CITY           SKY/WX    TMP DP  RH WIND       PRES   REMARKS
CARBONDALE     CLEAR     39  37  92 NE3       30.22S
CAIRO*         CLEAR     48  41  76 N5        30.20S
EFFINGHAM*     CLEAR     41  37  86 CALM      30.25R
MARION         CLEAR     45  41  87 N5        30.23R
MT. VERNON     CLEAR     43  37  81 N5        30.24R
CENTRALIA*     CLEAR     42  38  88 CALM      30.24S
SALEM*         CLEAR     45  42  90 NE5       30.24S
METROPOLIS*    CLEAR     47  42  85 NE3       30.19S
$$

ILZ067-068-072-073-078-083-087-091-221000-
SOUTHEAST ILLINOIS

CITY           SKY/WX    TMP DP  RH WIND       PRES   REMARKS
LAWRENCEVILLE  CLEAR     42  40  92 NE8       30.24S
FLORA*         CLEAR     41  39  94 N5        30.25R
FAIRFIELD*     CLEAR     42  40  95 N6        30.23R
HARRISBURG*    CLEAR     44  43  95 CALM      30.24R
ROBINSON*      CLEAR     40  39  97 CALM      30.26R
CARMI*         CLEAR     43  42  98 N6        30.22S
$$

ABBREVIATIONS USED IN REMARKS
   TC - TEMPERATURE IN CELSIUS
  WCI - WIND CHILL INDEX
   HX - HEAT INDEX
  VSB - VISIBILITY
$$




USA.gov is the U.S. government's official web portal to all federal, state and local government web resources and services.